WAT3630 SAZM-SAEZ

Flight info

Callsign WAT3630
Flight time 0h 35m
Altitude 27000
Route PULPA1G PULPA DCT GBE
Aircraft A21N/M-SDE3FGHIRWY/LB1

Departure

Time 2026-04-27 01:07
Airport Ástor Piazzola International Airport (SAZM)

Arrival

Time 2026-04-27 01:43
Airport Ezeiza International Airport - Ministro Pistarini (SAEZ)
Time Latitude Longitude Altitude Speed Heading
2026-04-27 00:24 -37.93323 -57.58082 64 ft 0 kts 302°
2026-04-27 01:01 -37.93321 -57.58086 64 ft 2 kts 302°
2026-04-27 01:01 -37.93311 -57.58099 64 ft 2 kts 327°
2026-04-27 01:01 -37.93298 -57.58098 64 ft 2 kts 12°
2026-04-27 01:01 -37.93277 -57.58091 64 ft 3 kts 18°
2026-04-27 01:02 -37.93248 -57.58067 64 ft 7 kts 38°
2026-04-27 01:02 -37.93197 -57.58010 64 ft 12 kts 42°
2026-04-27 01:02 -37.93182 -57.57993 64 ft 4 kts 42°
2026-04-27 01:03 -37.93179 -57.57990 64 ft 1 kts 36°
2026-04-27 01:04 -37.93156 -57.57968 63 ft 7 kts 52°
2026-04-27 01:04 -37.93150 -57.57881 62 ft 12 kts 106°
2026-04-27 01:04 -37.93199 -57.57761 59 ft 20 kts 121°
2026-04-27 01:04 -37.93293 -57.57581 57 ft 27 kts 123°
2026-04-27 01:05 -37.93413 -57.57348 54 ft 34 kts 122°
2026-04-27 01:05 -37.93537 -57.57100 54 ft 32 kts 123°
2026-04-27 01:05 -37.93661 -57.56869 54 ft 30 kts 119°
2026-04-27 01:05 -37.93766 -57.56652 54 ft 28 kts 124°
2026-04-27 01:06 -37.93875 -57.56451 54 ft 26 kts 128°
2026-04-27 01:06 -37.93940 -57.56356 54 ft 2 kts 102°
2026-04-27 01:06 -37.93927 -57.56346 54 ft 3 kts 341°
2026-04-27 01:06 -37.93908 -57.56379 54 ft 12 kts 293°
2026-04-27 01:07 -37.93711 -57.56768 54 ft 90 kts 302°
2026-04-27 01:07 -37.93263 -57.57662 58 ft 149 kts 301°
2026-04-27 01:07 -37.92659 -57.58881 391 ft 172 kts 298°
2026-04-27 01:07 -37.92028 -57.60139 1176 ft 173 kts 295°
2026-04-27 01:08 -37.91401 -57.61383 2027 ft 168 kts 288°
2026-04-27 01:08 -37.90812 -57.62715 2552 ft 181 kts 288°
2026-04-27 01:08 -37.90158 -57.64164 2989 ft 199 kts 289°
2026-04-27 01:08 -37.89441 -57.65723 3439 ft 218 kts 291°
2026-04-27 01:09 -37.88589 -57.67420 3891 ft 239 kts 293°
2026-04-27 01:09 -37.87676 -57.69256 4495 ft 252 kts 292°
2026-04-27 01:09 -37.86747 -57.71155 5287 ft 258 kts 292°
2026-04-27 01:09 -37.85760 -57.73042 6120 ft 268 kts 301°
2026-04-27 01:10 -37.84208 -57.74509 6897 ft 294 kts 328°
2026-04-27 01:10 -37.82175 -57.75052 7682 ft 313 kts 354°
2026-04-27 01:10 -37.79986 -57.74875 8516 ft 319 kts
2026-04-27 01:10 -37.77768 -57.74525 9317 ft 323 kts
2026-04-27 01:11 -37.75532 -57.74195 10078 ft 327 kts
2026-04-27 01:11 -37.73218 -57.73917 10561 ft 341 kts
2026-04-27 01:11 -37.70786 -57.73677 10940 ft 358 kts
2026-04-27 01:11 -37.68263 -57.73460 11344 ft 373 kts
2026-04-27 01:12 -37.65626 -57.73244 12007 ft 380 kts
2026-04-27 01:12 -37.62987 -57.73032 12776 ft 382 kts
2026-04-27 01:12 -37.60342 -57.72820 13513 ft 385 kts
2026-04-27 01:12 -37.57656 -57.72609 14222 ft 388 kts
2026-04-27 01:13 -37.54969 -57.72398 14933 ft 391 kts
2026-04-27 01:13 -37.52250 -57.72185 15669 ft 393 kts
2026-04-27 01:13 -37.49534 -57.71973 16351 ft 396 kts
2026-04-27 01:13 -37.46762 -57.71757 17039 ft 399 kts
2026-04-27 01:14 -37.43982 -57.71540 17720 ft 401 kts
2026-04-27 01:14 -37.41213 -57.71323 18380 ft 403 kts
2026-04-27 01:14 -37.38413 -57.71105 19029 ft 406 kts 360°
2026-04-27 01:14 -37.35583 -57.70884 19650 ft 409 kts 360°
2026-04-27 01:15 -37.32722 -57.70662 19974 ft 419 kts 360°
2026-04-27 01:15 -37.29741 -57.70432 20212 ft 431 kts 360°
2026-04-27 01:15 -37.26734 -57.70197 20482 ft 441 kts 360°
2026-04-27 01:15 -37.23622 -57.69952 20981 ft 445 kts 360°
2026-04-27 01:16 -37.20533 -57.69709 21546 ft 447 kts 360°
2026-04-27 01:16 -37.17424 -57.69466 22069 ft 450 kts
2026-04-27 01:16 -37.14309 -57.69223 22589 ft 452 kts 360°
2026-04-27 01:16 -37.11157 -57.68977 23105 ft 454 kts 360°
2026-04-27 01:17 -37.07992 -57.68732 23566 ft 457 kts 360°
2026-04-27 01:17 -37.04813 -57.68485 23996 ft 460 kts 360°
2026-04-27 01:17 -37.01614 -57.68438 24442 ft 458 kts 352°
2026-04-27 01:17 -36.98508 -57.69095 24718 ft 453 kts 340°
2026-04-27 01:18 -36.95572 -57.70455 24731 ft 444 kts 330°
2026-04-27 01:18 -36.92851 -57.72167 24734 ft 442 kts 328°
2026-04-27 01:18 -36.90109 -57.73959 24752 ft 441 kts 327°
2026-04-27 01:18 -36.87422 -57.75717 24753 ft 440 kts 327°
2026-04-27 01:19 -36.84700 -57.77489 24756 ft 441 kts 327°
2026-04-27 01:19 -36.81979 -57.79245 24749 ft 441 kts 327°
2026-04-27 01:19 -36.79245 -57.81000 24770 ft 441 kts 328°
2026-04-27 01:19 -36.76516 -57.82748 24772 ft 441 kts 328°
2026-04-27 01:20 -36.73778 -57.84494 24760 ft 441 kts 327°
2026-04-27 01:20 -36.71053 -57.86228 24779 ft 440 kts 327°
2026-04-27 01:20 -36.68311 -57.87974 24776 ft 441 kts 327°
2026-04-27 01:20 -36.65612 -57.89690 24780 ft 440 kts 327°
2026-04-27 01:21 -36.62887 -57.91421 24783 ft 440 kts 327°
2026-04-27 01:21 -36.60153 -57.93154 24773 ft 440 kts 327°
2026-04-27 01:21 -36.57419 -57.94885 24782 ft 440 kts 327°
2026-04-27 01:21 -36.54693 -57.96612 24787 ft 439 kts 327°
2026-04-27 01:22 -36.51961 -57.98341 24820 ft 438 kts 327°
2026-04-27 01:22 -36.49246 -58.00058 24792 ft 438 kts 327°
2026-04-27 01:22 -36.46543 -58.01765 24818 ft 438 kts 327°
2026-04-27 01:22 -36.43820 -58.03485 24805 ft 438 kts 327°
2026-04-27 01:23 -36.41109 -58.05196 24799 ft 438 kts 327°
2026-04-27 01:23 -36.38374 -58.06920 24805 ft 438 kts 327°
2026-04-27 01:23 -36.35657 -58.08628 24778 ft 438 kts 326°
2026-04-27 01:23 -36.32948 -58.10331 24813 ft 436 kts 326°
2026-04-27 01:24 -36.30266 -58.12021 24809 ft 437 kts 326°
2026-04-27 01:24 -36.27559 -58.13721 24785 ft 436 kts 326°
2026-04-27 01:24 -36.24829 -58.15435 24800 ft 437 kts 326°
2026-04-27 01:24 -36.22120 -58.17135 24797 ft 438 kts 326°
2026-04-27 01:25 -36.19410 -58.18833 24812 ft 437 kts 325°
2026-04-27 01:25 -36.16719 -58.20517 24830 ft 437 kts 325°
2026-04-27 01:25 -36.13988 -58.22228 24820 ft 436 kts 325°
2026-04-27 01:25 -36.11321 -58.23895 24697 ft 432 kts 325°
2026-04-27 01:26 -36.08566 -58.25461 23933 ft 444 kts 333°
2026-04-27 01:26 -36.05480 -58.26152 22867 ft 463 kts 349°
2026-04-27 01:26 -36.02245 -58.26325 22181 ft 462 kts 352°
2026-04-27 01:26 -35.99044 -58.26407 21601 ft 457 kts 353°
2026-04-27 01:27 -35.95890 -58.26509 20968 ft 452 kts 352°
2026-04-27 01:27 -35.92796 -58.26653 20298 ft 448 kts 352°
2026-04-27 01:27 -35.89702 -58.26834 19646 ft 445 kts 352°
2026-04-27 01:27 -35.86605 -58.27040 18991 ft 441 kts 352°
2026-04-27 01:28 -35.83551 -58.27250 18326 ft 437 kts 352°
2026-04-27 01:28 -35.80558 -58.27464 17686 ft 433 kts 352°
2026-04-27 01:28 -35.77546 -58.27681 17039 ft 430 kts 352°
2026-04-27 01:28 -35.74588 -58.27898 16429 ft 425 kts 352°
2026-04-27 01:29 -35.71666 -58.28115 15805 ft 422 kts 352°
2026-04-27 01:29 -35.68745 -58.28331 15170 ft 418 kts 352°
2026-04-27 01:29 -35.65837 -58.28549 14469 ft 417 kts 352°
2026-04-27 01:29 -35.62968 -58.28765 13855 ft 414 kts 352°
2026-04-27 01:30 -35.60089 -58.28977 13266 ft 410 kts 352°
2026-04-27 01:30 -35.57272 -58.29185 12682 ft 407 kts 352°
2026-04-27 01:30 -35.54444 -58.29396 12096 ft 404 kts 352°
2026-04-27 01:30 -35.51677 -58.29601 11510 ft 401 kts 352°
2026-04-27 01:31 -35.48886 -58.29807 11002 ft 396 kts 352°
2026-04-27 01:31 -35.46158 -58.30008 10719 ft 385 kts 352°
2026-04-27 01:31 -35.43549 -58.30196 10533 ft 372 kts 352°
2026-04-27 01:31 -35.40998 -58.30381 10355 ft 359 kts 352°
2026-04-27 01:32 -35.38563 -58.30557 10190 ft 347 kts 352°
2026-04-27 01:32 -35.36171 -58.30734 10034 ft 335 kts 351°
2026-04-27 01:32 -35.33879 -58.30901 9866 ft 325 kts 351°
2026-04-27 01:32 -35.31652 -58.31067 9509 ft 322 kts 351°
2026-04-27 01:33 -35.29413 -58.31236 9128 ft 319 kts 351°
2026-04-27 01:33 -35.27196 -58.31403 8753 ft 317 kts 351°
2026-04-27 01:33 -35.25014 -58.31566 8387 ft 315 kts 351°
2026-04-27 01:33 -35.22823 -58.31728 8020 ft 312 kts 351°
2026-04-27 01:34 -35.20672 -58.31887 7662 ft 310 kts 351°
2026-04-27 01:34 -35.18525 -58.32044 7309 ft 308 kts 351°
2026-04-27 01:34 -35.16396 -58.32200 6959 ft 306 kts 350°
2026-04-27 01:34 -35.14260 -58.32357 6599 ft 304 kts 350°
2026-04-27 01:35 -35.12172 -58.32511 6255 ft 302 kts 350°
2026-04-27 01:35 -35.10082 -58.32663 5924 ft 300 kts 350°
2026-04-27 01:35 -35.07999 -58.32815 5599 ft 297 kts 350°
2026-04-27 01:35 -35.05949 -58.32966 5276 ft 294 kts 350°
2026-04-27 01:36 -35.03921 -58.33112 4963 ft 292 kts 349°
2026-04-27 01:36 -35.01878 -58.33261 4647 ft 289 kts 349°
2026-04-27 01:36 -34.99901 -58.33401 4548 ft 277 kts 349°
2026-04-27 01:36 -34.98014 -58.33534 4462 ft 265 kts 348°
2026-04-27 01:37 -34.96173 -58.33539 4357 ft 270 kts 356°
2026-04-27 01:37 -34.94278 -58.33301 4050 ft 273 kts
2026-04-27 01:37 -34.92392 -58.32980 3758 ft 271 kts
2026-04-27 01:37 -34.90548 -58.32657 3477 ft 268 kts
2026-04-27 01:38 -34.88705 -58.32342 3297 ft 258 kts 359°
2026-04-27 01:38 -34.87014 -58.32452 3121 ft 229 kts 328°
2026-04-27 01:38 -34.85843 -58.33433 3017 ft 187 kts 295°
2026-04-27 01:38 -34.85419 -58.34732 2761 ft 161 kts 270°
2026-04-27 01:39 -34.85271 -58.36002 2532 ft 143 kts 268°
2026-04-27 01:39 -34.85129 -58.37161 2383 ft 137 kts 269°
2026-04-27 01:39 -34.84961 -58.38288 2201 ft 136 kts 270°
2026-04-27 01:39 -34.84774 -58.39411 2029 ft 135 kts 271°
2026-04-27 01:40 -34.84577 -58.40534 1861 ft 135 kts 272°
2026-04-27 01:40 -34.84373 -58.41656 1681 ft 134 kts 273°
2026-04-27 01:40 -34.84173 -58.42757 1503 ft 135 kts 274°
2026-04-27 01:40 -34.83971 -58.43872 1328 ft 134 kts 274°
2026-04-27 01:41 -34.83769 -58.44983 1155 ft 133 kts 274°
2026-04-27 01:41 -34.83571 -58.46082 990 ft 133 kts 275°
2026-04-27 01:41 -34.83357 -58.47175 799 ft 134 kts 276°
2026-04-27 01:41 -34.83153 -58.48269 616 ft 131 kts 274°
2026-04-27 01:42 -34.82959 -58.49376 460 ft 132 kts 275°
2026-04-27 01:42 -34.82816 -58.50468 283 ft 132 kts 276°
2026-04-27 01:42 -34.82569 -58.51550 164 ft 130 kts 273°
2026-04-27 01:42 -34.82382 -58.52609 87 ft 128 kts 274°
2026-04-27 01:43 -34.82237 -58.53523 71 ft 77 kts 272°
2026-04-27 01:43 -34.82137 -58.53909 72 ft 32 kts 325°
2026-04-27 01:43 -34.82019 -58.53829 74 ft 18 kts 73°
2026-04-27 01:43 -34.81959 -58.53697 75 ft 17 kts 42°
2026-04-27 01:44 -34.81856 -58.53661 77 ft 14 kts 345°
2026-04-27 01:44 -34.81771 -58.53701 80 ft 11 kts 334°
2026-04-27 01:44 -34.81712 -58.53742 82 ft 8 kts 329°
2026-04-27 01:44 -34.81640 -58.53795 84 ft 15 kts 328°
2026-04-27 01:45 -34.81549 -58.53841 87 ft 12 kts 348°
2026-04-27 01:45 -34.81499 -58.53853 87 ft 0 kts 347°